Starlink 33814

operational
NORAD ID: 63582 Int'l Des: 2025-076 Owner: SPXS Country: US Constellation: starlink
LEOCIRCULAR

About Starlink 33814

Description loading...

Live Position

Loading 3D Globe...

Upcoming Passes

Altitude History

Altitude vs Time

uPlot chart will show altitude changes over time

Two-Line Element Set

1 63582U 25076P 25257.99790167 .00025015 00000-0 91518-3 0 9993
2 63582 42.9985 233.6427 0000886 214.8346 145.2448 15.27590046 24968
Epoch: Sep 14, 2025 • Age: 22 hours

Current Status

Altitude 485.8 km
Velocity 7.63 km/s
Sub-Earth Point 41.06°N, 9.21°E
Launch Date Apr 14, 2025
Age 0.4 years
Type internet

Technical Details

Classification Payload
Mass 575.00 kg
Dry Mass 530.00 kg
Total Mass 575.00 kg
Length 0.30 m
Diameter 4.10 m
Span 29.00 m
Shape Box + pan
Manufacturer SPXS
Bus Type Starlink V2MO
Phase Status In Orbit
Owner/State SPXS/US

Large Constellations

Loading constellations...